Waarnemingen

Advertentie
Mijn weer
Bale-Mulhouse, Frankrijk (7299): temperatuur & dauwpunt: 14.07.2018 04:00:00 - 20.07.2018 04:00:00 (CEST)Bale-Mulhouse, Frankrijk (7299): temperatuur 5cm: 14.07.2018 04:00:00 - 20.07.2018 04:00:00 (CEST)Bale-Mulhouse, Frankrijk (7299): temperatuur -20cm & temperatuur -100cm: 14.07.2018 04:00:00 - 20.07.2018 04:00:00 (CEST)Bale-Mulhouse, Frankrijk (7299): windsnelheid & windstoten: 14.07.2018 04:00:00 - 20.07.2018 04:00:00 (CEST)Bale-Mulhouse, Frankrijk (7299): windrichting: 14.07.2018 04:00:00 - 20.07.2018 04:00:00 (CEST)Bale-Mulhouse, Frankrijk (7299): luchtdruk: 14.07.2018 04:00:00 - 20.07.2018 04:00:00 (CEST)Bale-Mulhouse, Frankrijk (7299): zicht: 14.07.2018 04:00:00 - 20.07.2018 04:00:00 (CEST)Bale-Mulhouse, Frankrijk (7299): Zonneschijnduur: 14.07.2018 04:00:00 - 20.07.2018 04:00:00 (CEST)Bale-Mulhouse, Frankrijk (7299): neerslag: 14.07.2018 04:00:00 - 20.07.2018 04:00:00 (CEST)
Datum & Tijd tt [°C] td [°C] tt 5cm [°C] tt -20cm [°C] tt -100cm [°C] ff [km/u] ff [kn] fx [km/u] fx [kn] dd ppp [hPa] vv [km] sd [min] rr [mm]
20.07.2018 04:00:00 16,9 13,2 15,6 27,1 22,7 4 2 6 3 WZW 1014,5 23 0 0,0
20.07.2018 03:00:00 17,3 12,8 15,6 27,3 22,7 4 2 8 5 W 1014,8 28 0 0,0
20.07.2018 02:00:00 19,3 12,8 17,5 27,5 22,7 2 1 11 6 N 1014,9 31 0 0,0
20.07.2018 01:00:00 19,8 12,8 17,6 27,7 22,7 6 3 14 8 WNW 1014,6 34 0 0,0
20.07.2018 00:00:00 22,3 12,3 20,1 27,9 22,7 8 5 15 8 NW 1014,2 38 0 0,0
19.07.2018 23:00:00 22,0 11,7 19,8 28,1 22,7 9 5 13 7 WNW 1014,1 20 0 0,0
19.07.2018 22:00:00 24,1 11,4 22,7 28,1 22,6 7 4 16 9 NW 1013,9 20 0 0,0
19.07.2018 21:00:00 26,4 12,1 26,1 28,1 22,6 9 5 23 12 NNW 1013,3 50 47 0,0
19.07.2018 20:00:00 28,5 12,0 29,6 28,0 22,6 11 6 29 16 N 1012,8 50 49 0,0
19.07.2018 19:00:00 28,7 11,7 29,6 27,8 22,6 19 10 31 17 N 1012,6 50 50 0,0
19.07.2018 18:00:00 30,6 12,0 34,8 27,4 22,6 16 9 30 16 N 1012,7 50 60 0,0
19.07.2018 17:00:00 31,0 12,4 35,7 27,1 22,6 16 9 31 17 N 1013,1 50 60 0,0
19.07.2018 16:00:00 30,5 12,4 35,5 26,6 22,6 16 9 30 16 N 1013,6 37 60 0,0
19.07.2018 15:00:00 29,8 12,2 33,5 26,3 22,6 14 8 32 18 NNW 1014,1 50 60 0,0
19.07.2018 14:00:00 28,8 13,5 31,7 25,9 22,6 13 7 25 14 NNW 1014,5 39 60 0,0
19.07.2018 13:00:00 28,2 12,5 30,3 25,6 22,6 11 6 22 12 N 1015,1 45 58 0,0
19.07.2018 12:00:00 26,2 13,0 30,4 25,4 22,6 9 5 21 11 NNO 1015,8 40 54 0,0
19.07.2018 11:00:00 25,1 13,9 27,4 25,3 22,5 5 3 16 9 WNW 1016,1 40 44 0,0
19.07.2018 10:00:00 22,5 14,1 23,3 25,4 22,6 6 3 13 7 NW 1016,6 40 60 0,0
19.07.2018 09:00:00 20,7 14,3 22,6 25,5 22,5 0 0 8 4 N 1016,7 40 60 0,0
19.07.2018 08:00:00 18,4 13,7 19,1 25,7 22,6 3 2 6 4 NNW 1016,9 40 57 0,0
19.07.2018 07:00:00 15,5 13,2 12,4 26,0 22,5 2 1 6 3 W 1017,1 30 16 0,0
19.07.2018 06:00:00 14,4 12,4 12,3 26,3 22,5 0 0 3 2 N 1017,1 30 0 0,0
19.07.2018 05:00:00 14,3 12,5 12,7 26,6 22,5 2 1 5 3 WZW 1017,1 30 0 0,0
19.07.2018 04:00:00 15,0 13,0 13,3 26,8 22,5 2 1 4 2 W 1017,0 17 0 0,0
19.07.2018 03:00:00 16,1 13,4 14,1 27,1 22,5 0 0 6 3 N 1016,6 22 0 0,0
19.07.2018 02:00:00 17,2 13,7 15,9 27,4 22,5 4 2 12 7 NNW 1016,4 24 0 0,0
19.07.2018 01:00:00 18,4 13,9 16,6 27,6 22,5 5 3 15 8 NNW 1016,1 32 0 0,0
19.07.2018 00:00:00 19,5 13,9 17,3 27,8 22,5 9 5 13 7 WNW 1015,5 40 0 0,0
18.07.2018 23:00:00 20,5 13,9 18,2 28,0 22,5 6 4 13 7 WNW 1015,0 40 0 0,0
18.07.2018 22:00:00 22,8 14,1 21,8 28,1 22,4 9 5 19 11 NW 1014,6 40 0 0,0
18.07.2018 21:00:00 25,2 14,0 24,8 28,1 22,4 15 8 29 16 NNW 1013,9 40 57 0,0
18.07.2018 20:00:00 28,0 13,5 30,2 28,0 22,5 17 9 34 19 N 1013,4 40 60 0,0
18.07.2018 19:00:00 29,6 12,1 33,5 27,7 22,4 16 9 24 13 N 1013,2 25 60 0,0
18.07.2018 18:00:00 30,0 10,5 34,0 27,4 22,4 11 6 23 12 N 1013,4 25 60 0,0
18.07.2018 17:00:00 30,5 11,5 35,7 26,9 22,4 13 7 33 18 NO 1013,9 25 60 0,0
18.07.2018 16:00:00 30,5 10,5 36,0 26,5 22,4 6 3 22 12 NO 1014,2 25 60 0,0
18.07.2018 15:00:00 30,1 11,1 33,3 26,1 22,4 8 5 19 10 N 1014,6 25 60 0,0
18.07.2018 14:00:00 28,9 13,2 31,6 25,6 22,4 7 4 21 12 NNO 1015,3 25 60 0,0
18.07.2018 13:00:00 27,7 12,9 32,3 25,3 22,5 6 4 25 13 NNO 1015,9 25 60 0,0
18.07.2018 12:00:00 26,3 14,1 32,4 25,0 22,4 8 4 18 10 N 1016,5 25 60 0,0
18.07.2018 11:00:00 24,9 14,7 29,1 24,9 22,4 6 3 15 8 W 1016,8 25 60 0,0
18.07.2018 10:00:00 23,8 14,2 24,5 24,9 22,4 3 2 11 6 NNW 1017,4 25 60 0,0
18.07.2018 09:00:00 22,2 14,6 23,7 25,0 22,4 4 2 13 7 O 1017,4 25 60 0,0
18.07.2018 08:00:00 19,8 15,0 19,2 25,2 22,4 4 2 11 6 ZZO 1017,6 25 60 0,0
18.07.2018 07:00:00 16,5 14,5 12,2 25,5 22,4 2 1 8 5 ZZO 1017,9 20 15 0,0
18.07.2018 06:00:00 14,1 12,8 11,9 25,8 22,4 0 0 4 2 N 1018,1 20 0 0,0
18.07.2018 05:00:00 14,0 12,9 12,1 26,0 22,4 3 2 6 3 ZZW 1018,1 15 0 0,0
18.07.2018 04:00:00 14,6 12,6 12,7 26,3 22,3 0 0 6 4 N 1018,1 20 0 0,0
18.07.2018 03:00:00 15,9 13,4 14,0 26,6 22,3 0 0 5 3 N 1017,9 23 0 0,0
18.07.2018 02:00:00 16,2 13,7 14,1 26,8 22,3 4 2 6 3 ZZW 1017,8 16 0 0,0
18.07.2018 01:00:00 16,6 13,7 15,1 27,1 22,3 2 1 6 3 NW 1017,7 32 0 0,0
18.07.2018 00:00:00 19,4 13,3 16,2 27,3 22,3 5 3 8 4 NO 1017,5 30 0 0,0
17.07.2018 23:00:00 21,0 13,2 18,8 27,4 22,3 5 3 18 10 NW 1016,9 30 0 0,0
17.07.2018 22:00:00 22,9 12,5 19,9 27,5 22,3 13 7 22 12 W 1016,3 30 0 0,0
17.07.2018 21:00:00 23,8 15,0 22,6 27,5 22,3 5 3 11 6 WZW 1015,5 30 16 0,0
17.07.2018 20:00:00 27,5 13,1 28,5 27,3 22,3 8 5 22 12 NNO 1014,6 30 55 0,0
17.07.2018 19:00:00 29,0 12,8 30,7 27,1 22,3 7 4 19 10 WNW 1014,1 30 55 0,0
17.07.2018 18:00:00 29,8 12,7 35,7 26,8 22,3 9 5 21 11 W 1014,5 30 60 0,0
17.07.2018 17:00:00 29,5 12,0 34,6 26,4 22,3 9 5 29 16 WNW 1014,3 30 60 0,0
17.07.2018 16:00:00 29,7 11,7 30,6 26,1 22,3 14 7 26 14 NW 1014,4 30 60 0,0
17.07.2018 15:00:00 26,7 13,4 28,1 25,7 22,3 8 4 44 24 N 1015,1 30 10 0,0
17.07.2018 14:00:00 26,7 13,1 30,1 25,3 22,3 22 12 46 25 NW 1014,9 30 43 0,0
17.07.2018 13:00:00 28,6 13,7 34,1 24,9 22,3 11 6 22 12 W 1014,7 30 60 0,0
17.07.2018 12:00:00 27,1 14,5 32,6 24,7 22,3 9 5 20 11 W 1015,1 30 60 0,0
17.07.2018 11:00:00 26,1 14,5 29,6 24,6 22,3 6 4 21 11 ZW 1015,4 30 60 0,0
17.07.2018 10:00:00 24,2 14,3 25,3 24,6 22,2 8 4 15 8 W 1015,5 30 60 0,0
17.07.2018 09:00:00 22,4 14,3 21,6 24,7 22,2 4 2 12 6 ZZO 1015,6 30 57 0,0
17.07.2018 08:00:00 19,4 14,4 18,4 24,9 22,2 4 2 10 5 Z 1015,9 30 57 0,0
17.07.2018 07:00:00 16,6 13,9 11,6 25,1 22,2 4 2 9 5 ZZO 1015,8 30 25 0,0
17.07.2018 06:00:00 13,6 12,3 11,5 25,4 22,2 2 1 9 5 Z 1015,6 30 0 0,0
17.07.2018 05:00:00 13,8 12,4 11,6 25,7 22,2 4 2 9 5 WZW 1015,3 30 0 0,0
17.07.2018 04:00:00 13,6 11,8 11,6 26,0 22,2 3 2 4 2 Z 1014,8 26 0 0,0
17.07.2018 03:00:00 14,2 12,6 12,5 26,3 22,2 2 1 6 3 W 1014,6 19 0 0,0
17.07.2018 02:00:00 15,6 13,3 13,0 26,5 22,2 2 1 6 3 WZW 1014,2 30 0 0,0
17.07.2018 01:00:00 16,6 13,5 14,1 26,8 22,2 0 0 9 5 N 1013,9 25 0 0,0
17.07.2018 00:00:00 17,0 14,1 15,3 27,0 22,2 4 2 8 4 W 1013,4 50 0 0,0
16.07.2018 23:00:00 18,4 14,1 17,2 27,2 22,2 5 3 10 6 W 1013,0 50 0 0,0
16.07.2018 22:00:00 20,0 14,1 18,3 27,3 22,2 5 3 18 10 WNW 1011,9 50 0 0,0
16.07.2018 21:00:00 24,5 12,1 24,0 27,3 22,2 10 5 21 11 NNW 1010,7 60 46 0,0
16.07.2018 20:00:00 26,8 12,4 26,3 27,2 22,2 9 5 24 13 NNW 1009,9 46 20 0,0
16.07.2018 19:00:00 28,8 10,9 31,1 26,9 22,2 16 9 26 14 N 1009,0 50 60 0,0
16.07.2018 18:00:00 29,4 9,5 34,2 26,5 22,2 15 8 27 15 N 1009,0 50 60 0,0
16.07.2018 17:00:00 29,7 10,8 34,8 26,1 22,2 12 7 30 16 NNO 1009,2 32 60 0,0
16.07.2018 16:00:00 29,4 11,4 36,3 25,6 22,2 8 4 20 11 W 1009,7 50 60 0,0
16.07.2018 15:00:00 29,1 11,2 34,3 25,1 22,2 7 4 21 11 W 1010,1 50 60 0,0
16.07.2018 14:00:00 28,2 11,3 32,0 24,7 22,1 5 3 16 9 WNW 1010,8 50 60 0,0
16.07.2018 13:00:00 27,0 11,9 31,1 24,4 22,1 9 5 16 9 WNW 1011,7 50 60 0,0
16.07.2018 12:00:00 25,5 13,4 31,3 24,2 22,2 4 2 15 8 ZZO 1012,6 50 60 0,0
16.07.2018 11:00:00 24,5 14,3 28,5 24,1 22,1 4 2 19 10 OZO 1012,9 50 60 0,0
16.07.2018 10:00:00 22,6 14,2 22,2 24,1 22,2 4 2 12 7 O 1013,4 40 60 0,0
16.07.2018 09:00:00 20,5 15,1 22,0 24,1 22,1 5 3 13 7 ZO 1014,3 40 60 0,0
16.07.2018 08:00:00 18,2 15,3 17,9 24,4 22,1 3 2 9 5 Z 1014,7 30 60 0,0
16.07.2018 07:00:00 15,7 14,2 13,0 24,6 22,1 5 3 10 5 Z 1015,1 30 32 0,0
16.07.2018 06:00:00 14,1 13,5 11,5 24,9 22,1 6 3 9 5 Z 1015,2 20 0 0,0
16.07.2018 05:00:00 14,9 13,9 12,6 25,1 22,1 6 3 9 5 Z 1014,9 20 0 0,0
16.07.2018 04:00:00 14,8 13,8 12,8 25,4 22,1 7 4 10 6 ZO 1015,1 21 0 0,0
16.07.2018 03:00:00 15,1 14,3 13,3 25,7 22,1 4 2 9 5 ZZW 1015,2 14 0 0,0
16.07.2018 02:00:00 16,1 15,3 15,0 25,9 22,1 4 2 9 5 ZZW 1015,4 14 0 0,0
16.07.2018 01:00:00 17,1 16,0 16,5 26,1 22,1 5 3 9 5 WNW 1015,7 20 0 0,0
16.07.2018 00:00:00 18,0 16,0 16,9 26,3 22,1 3 2 23 12 ZO 1015,9 50 0 0,0
15.07.2018 23:00:00 17,7 16,4 16,9 26,6 22,0 2 1 11 6 W 1015,9 30 0 0,2
15.07.2018 22:00:00 18,0 16,0 17,4 26,8 22,0 3 2 14 8 WZW 1016,1 30 0 0,0
15.07.2018 21:00:00 18,9 15,6 17,0 27,0 22,0 7 4 21 11 Z 1015,3 20 0 0,0
15.07.2018 20:00:00 19,1 15,6 17,1 27,1 22,0 9 5 29 16 NNW 1015,2 20 0 0,4
15.07.2018 19:00:00 21,6 15,0 18,1 27,1 22,0 21 11 38 21 WZW 1014,8 6 0 0,2
15.07.2018 18:00:00 23,6 13,5 24,3 27,0 22,0 6 3 19 11 NNO 1013,2 25 13 0,0
15.07.2018 17:00:00 25,0 10,8 25,2 26,8 22,0 5 3 26 14 O 1012,8 25 13 0,0
15.07.2018 16:00:00 26,3 10,8 26,7 26,4 22,0 12 6 47 25 Z 1012,5 25 12 0,0
15.07.2018 15:00:00 30,8 11,2 33,4 26,0 22,0 8 4 20 11 NW 1012,3 25 53 0,0
15.07.2018 14:00:00 29,7 11,7 34,0 25,6 21,9 6 3 18 10 NNW 1012,6 25 60 0,0
15.07.2018 13:00:00 28,7 12,6 32,6 25,2 21,9 3 2 16 9 O 1013,6 25 60 0,0
15.07.2018 12:00:00 27,9 13,8 33,0 24,9 21,9 5 3 15 8 NO 1014,3 25 60 0,0
15.07.2018 11:00:00 26,7 13,8 30,1 24,8 21,9 9 5 19 10 OZO 1014,9 25 60 0,0
15.07.2018 10:00:00 25,0 14,5 25,5 24,8 21,9 4 2 10 5 Z 1015,4 25 60 0,0
15.07.2018 09:00:00 22,7 14,8 23,8 24,9 21,9 2 1 8 4 ZW 1016,1 25 60 0,0
15.07.2018 08:00:00 20,2 14,8 19,0 25,1 21,9 5 3 8 5 WNW 1016,3 25 60 0,0
15.07.2018 07:00:00 16,6 14,8 13,8 25,3 21,9 5 3 8 4 NW 1016,6 25 13 0,0
15.07.2018 06:00:00 15,4 13,9 13,8 25,6 21,8 4 2 8 4 ZW 1016,2 25 0 0,0
15.07.2018 05:00:00 16,5 14,1 15,0 25,7 21,8 2 1 6 3 NNO 1016,0 25 0 0,0
15.07.2018 04:00:00 19,8 14,8 17,8 25,9 21,8 4 2 9 5 O 1015,8 28 0 0,0
15.07.2018 03:00:00 20,1 15,3 18,9 26,1 21,8 3 2 8 4 OZO 1015,7 29 0 0,0
15.07.2018 02:00:00 20,6 14,0 18,5 26,3 21,8 3 1 16 9 ZO 1016,2 32 0 0,0
15.07.2018 01:00:00 19,4 14,9 18,3 26,6 21,8 2 1 7 4 WZW 1016,0 14 0 0,0
15.07.2018 00:00:00 19,3 14,8 18,2 26,7 21,8 5 3 11 6 ZW 1015,9 20 0 0,0
14.07.2018 23:00:00 19,5 14,3 17,7 26,9 21,8 3 2 8 5 ZW 1015,6 20 0 0,0
14.07.2018 22:00:00 19,7 14,1 17,8 27,0 21,8 7 4 8 5 WZW 1015,5 30 0 0,0
14.07.2018 21:00:00 24,3 14,1 22,6 27,1 21,8 5 3 19 10 WNW 1014,9 35 5 0,0
14.07.2018 20:00:00 27,9 12,3 28,5 26,9 21,8 10 5 20 11 N 1014,4 50 14 0,0
14.07.2018 19:00:00 28,9 11,9 30,5 26,7 21,7 10 5 22 12 N 1014,4 50 10 0,0
14.07.2018 18:00:00 28,9 11,0 30,9 26,5 21,7 11 6 34 18 NNO 1014,7 50 32 0,0
14.07.2018 17:00:00 30,0 9,5 33,5 26,1 21,7 15 8 25 14 N 1014,7 50 51 0,0
14.07.2018 16:00:00 30,5 11,0 34,2 25,7 21,7 11 6 37 20 NNO 1014,9 50 53 0,0
14.07.2018 15:00:00 30,7 11,6 33,9 25,3 21,7 12 7 23 12 N 1015,5 50 35 0,0
14.07.2018 14:00:00 30,6 10,0 33,4 24,8 21,7 5 3 21 11 ZZW 1015,9 50 60 0,0
14.07.2018 13:00:00 28,7 11,7 32,6 24,4 21,7 6 3 20 11 NNW 1016,7 50 60 0,0
14.07.2018 12:00:00 27,6 12,8 33,2 24,2 21,7 4 2 11 6 WNW 1017,2 50 60 0,0
14.07.2018 11:00:00 25,5 14,6 28,8 24,1 21,7 4 2 11 6 WNW 1017,8 40 60 0,0
14.07.2018 10:00:00 23,4 13,8 24,3 24,1 21,7 4 2 9 5 WNW 1018,3 30 60 0,0
14.07.2018 09:00:00 21,9 14,3 23,5 24,1 21,7 0 0 9 5 N 1018,8 30 60 0,0
14.07.2018 08:00:00 20,0 14,6 19,3 24,3 21,6 0 0 4 2 N 1018,9 30 60 0,0
14.07.2018 07:00:00 15,8 14,2 12,1 24,6 21,7 0 0 4 2 N 1019,2 30 28 0,0
14.07.2018 06:00:00 13,3 12,2 12,0 24,9 21,6 3 2 4 2 W 1019,3 30 0 0,0
14.07.2018 05:00:00 14,8 12,7 12,6 25,1 21,6 0 0 6 4 N 1019,1 18 0 0,0
14.07.2018 04:00:00 15,4 12,9 13,7 25,3 21,6 3 1 6 3 WZW 1019,1 24 0 0,0

tt = temperatuur
td = dauwpunt
tt 5cm = temperatuur 5cm
tt -20cm = temperatuur -20cm
tt -100cm = temperatuur -100cm
ff = windsnelheid
fx = windstoten
dd = windrichting
ppp = luchtdruk
vv = zicht
sd = Zonneschijnduur
rr = neerslag

Weerstations in de omgeving